Lid_Strength_Index
6 6 6 6 6 6 5 5 5 4 4 4 3 2 2 2 2 6 8 4 2 -1 -1 5 8 8 8 9 8 9 14 16 16 15 15 13 13 12 11 12 11 10 10 9 7
6 6 7 6 7 6 6 5 5 4 4 4 3 2 2 2 6 8 3 -0 -1 -1 5 8 9 9 11 10 10 11 14 15 13 14 14 12 11 12 11 11 11 11 9 7 7
6 6 7 7 7 6 6 5 5 5 4 4 4 3 1 3 10 9 1 -0 -0 1 4 7 7 9 12 11 12 13 15 13 12 11 11 11 11 10 12 12 12 12 10 8 8
6 7 7 7 7 7 6 6 5 5 4 4 4 3 1 7 15 7 1 0 0 4 7 9 10 12 13 14 12 14 12 12 10 10 11 12 11 12 12 12 10 9 8 8 8
6 7 7 7 7 7 6 5 5 5 4 4 4 3 6 12 10 5 1 3 6 6 8 9 11 12 14 13 13 14 13 11 11 10 11 10 11 12 12 11 9 8 8 9 8
6 6 7 7 7 7 7 6 5 5 5 4 4 3 9 15 6 5 6 6 7 8 8 8 10 10 12 13 14 13 12 12 11 11 11 11 12 11 12 11 10 9 10 9 8
6 6 7 8 8 7 7 7 6 5 5 5 4 7 12 12 7 6 6 7 6 8 9 8 8 10 11 13 12 12 14 13 12 12 12 11 13 13 12 10 11 11 10 9 7
6 6 7 8 8 7 7 6 6 6 5 5 4 10 15 7 7 6 6 7 6 6 8 8 8 10 11 12 12 14 15 17 14 12 11 12 16 12 11 11 12 11 11 9 7
6 7 7 8 8 8 7 6 6 6 5 5 10 12 15 6 8 7 7 8 7 7 7 6 9 11 12 15 16 16 18 17 15 12 12 13 16 12 11 12 12 12 11 9 8
6 7 7 8 8 8 7 7 6 7 8 8 10 14 11 12 9 7 7 7 9 9 9 9 12 14 15 16 18 18 18 17 17 14 14 14 15 13 12 12 12 13 12 10 9
6 6 7 8 8 7 8 11 13 12 11 13 13 13 11 10 9 9 7 8 9 10 14 12 15 18 16 15 14 16 17 18 16 13 15 16 15 14 13 13 13 12 12 11 9
5 6 7 8 8 7 9 13 12 12 14 12 12 12 10 10 13 11 8 11 12 14 13 15 17 14 13 13 14 15 17 17 15 14 14 16 15 14 14 13 13 12 12 11 10
5 6 7 8 8 9 11 12 9 11 15 14 12 12 12 11 14 14 11 11 13 14 14 18 15 12 13 14 15 16 17 17 17 14 14 16 18 15 14 13 12 12 12 11 10
5 6 7 9 10 11 12 9 9 10 20 18 15 13 11 12 15 12 12 13 13 15 15 15 13 14 15 15 15 16 14 14 14 17 19 16 24 17 15 14 13 13 12 12 11
4 5 7 8 11 12 10 9 9 12 22 17 16 11 12 14 14 15 12 13 16 15 16 17 15 15 15 15 13 15 13 14 15 17 19 19 22 19 15 16 15 13 12 12 11
4 5 7 9 9 10 8 9 11 18 21 19 16 15 15 14 15 14 14 13 13 16 15 16 12 13 14 13 13 12 14 15 15 17 23 18 21 22 20 17 15 14 13 12 11
5 5 7 9 12 8 8 11 19 23 18 20 19 16 16 17 17 16 17 18 21 22 22 17 16 14 12 15 13 14 17 22 23 23 22 18 21 20 16 14 14 14 14 13 12
5 6 8 8 8 9 11 15 22 20 20 17 17 16 18 17 18 18 17 21 18 19 23 22 23 16 13 15 15 15 16 21 27 24 21 18 21 18 14 13 13 13 14 13 13
6 9 10 9 9 10 13 20 19 19 17 17 17 19 20 18 18 18 19 20 19 18 21 22 21 15 14 13 14 16 17 15 19 24 22 20 18 16 14 14 14 14 14 15 14
10 10 11 8 9 11 16 19 18 16 15 16 19 18 20 19 20 20 20 18 18 17 18 18 22 18 15 14 14 15 14 19 19 26 25 21 20 20 17 16 15 15 16 15 14
11 14 11 8 10 14 22 21 18 15 14 16 18 18 19 19 19 19 19 17 16 17 17 18 20 20 18 18 18 17 17 16 17 18 22 23 21 17 16 15 15 15 15 15 15
11 16 9 9 15 18 19 18 16 16 15 16 16 17 18 18 19 19 19 17 15 16 19 18 19 23 21 17 16 16 17 17 21 20 19 19 21 14 14 14 14 15 15 15 15
14 15 9 10 18 21 20 20 17 17 17 17 18 17 17 18 20 18 17 15 15 16 18 18 23 27 23 20 18 19 17 16 16 17 19 21 21 15 14 14 14 15 15 15 16
14 17 14 13 14 19 19 20 21 16 17 16 17 16 18 19 18 18 18 16 15 15 14 16 20 22 24 22 20 20 19 17 18 20 19 19 19 18 15 15 15 15 15 15 15
14 16 15 19 17 18 16 18 19 20 17 16 18 18 18 21 19 19 17 17 16 15 17 18 25 21 21 20 20 19 19 19 19 18 20 19 18 16 15 14 14 15 15 15 15
13 15 14 16 15 16 16 20 18 18 18 18 22 17 17 19 18 19 18 18 18 17 18 19 24 22 25 22 22 21 20 19 18 18 18 18 18 16 14 14 14 14 15 15 15
10 9 11 14 15 16 17 18 17 17 17 16 16 17 18 16 15 16 15 15 16 18 19 20 22 23 27 23 24 28 22 20 18 17 16 19 16 16 16 14 14 14 14 14 14